Location: Pace/Milton
(30.6162°N, 87.1503°W)
Time: 11:20:18
(UTC-06:00)

Hubble Space Telescope - Pass Details

Date: 05 December 2021
Orbit: 535 x 538 km, 28.5° (Epoch: 21 January)

Event Time Altitude Azimuth Distance (km) Brightness Sun altitude
Exits shadow 03:43:05 11° 124° (SE) 1,725 4.0 -35.5°
Drops below altitude 10° 03:43:13 10° 123° (ESE) 1,771 4.0 -35.5°
Sets 03:45:33 0° 116° (ESE) 2,660 5.2 -35.0°
